Location: Steinbach
(49.5170°N, 96.6830°W)
Time: 15:36:13
(UTC-05:00)

Daily predictions for brighter satellites

Satellite Brightness Start Highest point End
(mag) Time Altitude Azimuth Time Altitude Azimuth Time Altitude Azimuth
Cosmos 1953 2.4 20:22:25 10° S 20:26:25 58° E 20:30:24 10° NNE
Cosmos 1844 Rocket 4.4 20:21:23 10° WSW 20:26:35 37° NW 20:31:49 10° NNE
FENGYUN 3A 3.9 20:24:28 10° SSE 20:29:53 81° WSW 20:35:19 10° NNW
Cosmos 2369 Rocket 3.9 20:28:18 10° ESE 20:30:08 12° E 20:31:57 10° ENE
Lacrosse 5 2.3 20:26:49 10° WSW 20:31:52 66° NNW 20:36:56 10° NE
Cosmos 1833 Rocket 3.1 20:30:03 10° NNW 20:35:38 66° WSW 20:41:12 10° SSE
GP-B 3.4 20:33:42 10° SSE 20:37:57 47° E 20:42:13 10° N
Meteor 1-29 4.4 20:37:22 10° NE 20:39:54 19° E 20:42:26 10° SE
Lacrosse 5 rocket 2.5 20:37:41 10° WNW 20:41:22 36° SW 20:44:52 10° SSE
CZ-2D R/B 3.2 20:38:35 10° SSE 20:42:27 74° ENE 20:46:22 10° N
CZ-3B DEB 2.7 20:33:56 10° WSW 20:43:58 77° NNW 20:48:29 10° ENE
Cosmos 1939 Rocket 3.9 20:40:49 10° SE 20:44:26 30° ENE 20:48:05 10° N
Cosmos 1805 3.7 20:41:02 10° SSW 20:44:54 67° WNW 20:48:50 10° N
ATLAS 5 CENTAUR R/B 1.9 20:42:54 10° SSW 20:47:34 57° SE 20:52:41 10° NE
Cosmos 2016 Rocket 4.5 20:42:19 10° SSE 20:47:53 37° E 20:53:26 10° NNE
ALOS 3.3 20:43:54 10° S 20:48:27 50° W 20:53:02 10° NNW
Cosmos 1743 Rocket 3.8 20:45:24 10° N 20:49:46 52° ENE 20:54:07 10° SSE
Cosmos 1500 Rocket 4.1 20:45:52 10° N 20:49:57 39° ENE 20:54:00 10° SE
USA 186 0.8 20:48:00 10° SSE 20:50:10 55° ENE 20:52:23 10° N
Cosmos 372 Rocket 3.9 20:45:38 10° SSW 20:50:45 78° ESE 20:55:58 10° NNE
Resurs 01 Rocket 2.0 20:46:28 10° S 20:50:52 70° WSW 20:55:20 10° NNW
Cosmos 1733 3.3 20:48:41 10° S 20:52:28 54° E 20:56:18 10° NNE
COSMOS 2487 4.4 20:49:29 10° NW 20:52:41 31° WSW 20:55:52 10° SSW
Helios 1B rocket 3.0 20:49:43 10° NNE 20:53:33 35° E 20:57:20 10° SSE
Cosmos 2278 Rocket 3.3 20:48:54 10° SW 20:54:23 48° NW 20:59:54 10° NNE
Cosmos 2151 3.7 20:53:43 10° N 20:57:38 34° ENE 21:00:57 13° SE
Spot 1 4.4 20:52:54 10° SSE 20:57:43 75° ENE 21:02:48 10° NNW
Cosmos 2251 Rocket 3.6 20:52:52 10° NNW 20:58:12 71° ENE 21:03:33 10° SSE
CZ-4C R/B 3.4 20:59:29 10° SSE 21:03:08 19° ESE 21:07:05 10° ENE
Lacrosse 4 Rocket 4.2 21:01:55 10° WNW 21:04:16 15° NNW 21:06:37 10° N
Cosmos 1470 2.7 21:01:07 10° S 21:05:05 80° E 21:09:04 10° NNE
SAR-Lupe-4 3.5 21:02:45 10° SSE 21:06:21 87° WSW 21:09:58 10° NNW
Cosmos 1408 Rocket 4.4 21:03:26 10° NNW 21:07:50 54° W 21:12:10 10° S
Cosmos 2100 Rocket 4.0 21:03:15 10° S 21:09:35 77° E 21:15:59 10° NNE
H-2A R/B 4.4 21:09:33 10° SSW 21:13:13 37° W 21:16:56 10° NNW
YAOGAN 6 3.5 21:12:14 21° ESE 21:13:57 31° ENE 21:17:18 10° N
Cosmos 2344 4.3 21:07:01 10° WSW 21:14:44 62° NW 21:24:09 10° NE
Cosmos 2297 4.2 21:09:20 10° SW 21:15:02 65° WNW 21:20:48 10° NNE
Cosmos 494 Rocket 4.0 21:10:38 10° NNW 21:15:47 84° WSW 21:20:54 10° SSE
TIMED 4.4 21:11:39 10° S 21:15:58 64° ESE 21:20:19 10° NNE
Cosmos 1184 Rocket 2.9 21:15:13 10° NNW 21:18:37 77° W 21:21:58 10° S
Cosmos 2082 Rocket 4.1 21:15:14 10° NW 21:20:03 29° WSW 21:24:50 10° SSW
ARGOS 4.2 21:17:30 19° E 21:20:04 27° ENE 21:24:31 10° N
Tsikada Rocket 4.1 21:14:22 10° N 21:20:29 55° ENE 21:25:55 14° SSE
Cosmos 1340 Rocket 3.8 21:18:40 10° NNW 21:22:33 47° W 21:26:22 10° S
Coronas F rocket 2.4 21:21:06 10° N 21:22:18 22° NE 21:22:18 22° NE
CZ-4B DEB 2.8 21:22:20 14° S 21:24:57 74° WSW 21:28:04 10° NNW
Helios 1A 3.6 21:24:00 10° S 21:28:06 57° WSW 21:32:17 10° NNW
Cosmos 1842 Rocket 3.5 21:24:57 10° S 21:29:19 68° E 21:33:41 10° NNE
Cosmos 389 Rocket 2.6 21:26:45 15° S 21:29:24 50° E 21:32:51 10° NNE
USA 267 3.8 21:24:10 14° E 21:29:33 52° NNE 21:35:51 10° WNW
Cosmos 1356 Rocket 3.5 21:29:17 10° NNW 21:33:24 74° W 21:36:58 13° S
Cosmos 1802 Rocket 4.0 21:29:49 10° S 21:35:58 88° W 21:42:14 10° N
SeaSat 1 4.4 21:33:35 10° SSW 21:37:41 26° WSW 21:41:49 10° NW
ISS -4.0 21:34:26 10° WSW 21:37:43 79° SSE 21:38:42 41° E
Cosmos 1271 Rocket 4.0 21:34:23 10° SSW 21:38:15 45° WNW 21:42:08 10° N
Envisat 3.2 21:34:48 10° S 21:39:52 72° WSW 21:44:59 10° NNW
SL-14 R/B 3.6 21:36:10 10° NNW 21:40:00 66° W 21:43:16 14° S
Meteor 1-16 Rocket 4.3 21:34:43 10° S 21:40:36 79° E 21:46:35 10° NNE
Meteor 1-11 4.3 21:38:53 10° NNW 21:44:30 81° W 21:49:37 13° S
Cosmos 1816 Rocket 4.4 21:38:31 10° N 21:44:43 69° ENE 21:49:04 21° SSE
ERS-1 Rocket 2.9 21:43:09 24° SSE 21:46:16 76° ENE 21:51:20 10° NNW
Geosat 3.9 21:42:20 10° NNE 21:47:24 78° ESE 21:52:26 10° SSW
Cosmos 1459 Rocket 4.5 21:43:23 10° SSW 21:49:31 62° WNW 21:55:37 10° N
Cosmos 1626 2.2 21:46:00 10° N 21:49:43 56° ENE 21:50:16 49° ESE
Sich 1 3.6 21:50:51 10° N 21:55:01 39° ENE 21:55:27 38° E
SL-08 RB Rocket 4.4 21:56:37 36° E 21:57:22 38° ENE 22:01:42 10° N
Cosmos 2297 Rocket 4.4 21:55:28 10° N 21:58:11 13° NNE 22:00:53 10° ENE
Cosmos 2233 Rocket 4.0 21:56:37 24° SSE 22:00:16 56° E 22:06:15 10° NNE
MetOp-B 4.1 22:02:00 36° SSE 22:04:14 73° ENE 22:09:36 10° NNW
Cosmos 1666 Rocket 3.7 22:01:14 10° N 22:05:28 50° ENE 22:05:42 49° E
Cosmos 1633 Rocket 3.5 22:01:23 10° N 22:05:38 43° ENE 22:05:45 42° ENE
Cosmos 1864 Rocket 4.5 22:00:53 10° S 22:07:13 88° W 22:13:33 10° N
Cosmos 2058 3.4 22:03:22 10° NNW 22:07:27 57° W 22:09:28 27° SSW
YAOGAN 11 4.1 22:07:22 46° SSE 22:08:42 83° ENE 22:13:16 10° NNW
Cosmos 1703 3.3 22:05:30 10° NNW 22:09:27 77° W 22:10:18 52° S
H-2A R/B 2.6 22:09:10 38° E 22:10:05 41° ENE 22:14:59 10° N
Cosmos 2221 2.4 22:10:11 48° S 22:11:19 76° E 22:15:44 10° NNE
SL-24 R/B - RUBIN 2 4.5 22:06:29 10° NW 22:12:40 59° NE 22:14:22 42° E
Cosmos 2369 Rocket 2.0 22:07:31 10° SSW 22:13:06 70° ESE 22:18:42 10° NNE
Meteor 2-1 Rocket 4.1 22:09:22 10° S 22:15:06 88° ESE 22:20:45 10° NNE
Lacrosse 5 3.2 22:10:51 10° WNW 22:15:32 36° N 22:19:04 16° NE
ATLAS 3B R/B 4.3 22:20:37 17° ENE 22:20:37 17° ENE 22:22:40 10° ENE
ATLAS CENTAUR R/B 3.5 22:15:23 10° NW 22:15:53 16° NNW 22:15:53 16° NNW
Terra 2.9 22:18:31 29° ENE 22:18:31 29° ENE 22:22:27 10° N
Cosmos 1833 4.1 22:13:46 10° NNW 22:19:25 75° ENE 22:20:53 51° SE
SPOT 5 3.0 22:20:01 47° SSE 22:21:38 85° ENE 22:26:55 10° NNW
BREEZE-M DEB (TANK) 4.2 22:17:39 10° WSW 22:22:23 62° SSE 22:41:42 10° E
Cosmos 2227 Rocket 3.9 22:21:29 10° N 22:25:37 20° NE 22:27:14 18° ENE
Cosmos 1943 Rocket 2.5 22:30:16 47° E 22:30:16 47° E 22:34:54 10° NE
deb Kosmos-1763 4.5 22:25:59 10° NNW 22:29:40 63° W 22:29:40 63° W
H-2A R/B 2.9 22:30:39 37° NE 22:30:39 37° NE 22:33:43 10° N
Cosmos 1805 Rocket 3.9 22:27:39 10° NNW 22:32:03 63° W 22:32:52 52° SW
ATLAS 5 CENTAUR R/B 3.5 22:28:00 10° W 22:32:32 35° NNW 22:37:32 10° NE
NOAA 11 4.3 22:31:45 40° S 22:33:44 70° WSW 22:39:15 10° NNW
Cosmos 2263 4.0 22:34:19 34° SSW 22:36:51 76° ESE 22:42:33 10° NNE
USA 215 3.3 22:30:55 10° ENE 22:37:15 51° SE 22:43:34 10° SSW
Nimbus 7 Rocket 4.3 22:37:13 10° NNE 22:43:04 68° ESE 22:43:43 63° SE
Cosmos 407 Rocket 3.5 22:37:59 10° NNW 22:43:15 63° ENE 22:43:21 63° ENE
Cosmos 1470 Rocket 4.3 22:40:19 10° N 22:43:43 44° NNE 22:43:43 44° NNE
Meteor 2-12 Rocket 4.3 22:45:18 63° SE 22:46:05 71° E 22:52:07 10° NNE
CZ-4C R/B 2.1 22:45:16 10° SW 22:50:41 87° NW 22:56:58 10° NE
Cosmos 1464 Rocket 3.9 22:51:39 62° ESE 22:51:54 63° E 22:58:07 10° NNE
SPOT 1/Viking Rocket 3.5 22:53:50 68° SSW 22:54:19 74° WSW 22:59:35 10° NNW
CZ-3B DEB 2.5 22:49:42 10° WNW 22:55:19 39° N 22:55:27 39° N
ARGOS 3.6 22:59:00 47° SW 23:00:02 54° W 23:05:18 10° NNW
Gblst 52 Del rocket 4.2 22:59:42 10° WSW 23:04:43 68° SW 23:04:43 68° SW
Cosmos 1140 Rocket 4.2 23:03:00 10° NNW 23:07:28 45° NE 23:07:28 45° NE
Cosmos 2219 3.1 23:04:42 10° NNW 23:10:07 76° NNE 23:10:07 76° NNE
Cosmos 2034 Rocket 4.0 23:11:25 63° ENE 23:11:25 63° ENE 23:17:09 10° NNE
USA 267 3.1 23:11:30 71° SE 23:12:20 88° SSW 23:18:55 10° WNW
ISS -0.6 23:11:04 10° W 23:11:22 12° W 23:11:22 12° W
Cosmos 1513 Rocket 4.3 23:24:08 83° NNE 23:24:08 83° NNE 23:30:01 10° N
Cosmos 676 Rocket 4.4 23:25:04 10° NNW 23:29:33 62° NW 23:29:33 62° NW
In-Cosmos 22 Rocket 4.4 23:26:20 10° NNW 23:31:17 68° NW 23:31:17 68° NW
Meteor 2-2 Rocket 4.4 23:32:52 76° NNW 23:32:52 76° NNW 23:38:30 10° N
Cosmos 1092 Rocket 4.1 23:29:01 10° N 23:34:35 64° NE 23:34:35 64° NE
Cosmos 2297 Rocket 3.1 23:38:25 10° NNW 23:43:01 41° NNE 23:43:01 41° NNE
H-2A R/B 3.4 23:49:48 33° W 23:49:48 33° W 23:54:19 10° NNW
Nadezhda 4 Rocket 4.1 23:44:44 10° NNW 23:50:22 67° WNW 23:50:22 67° WNW
Cosmos 2082 4.5 23:48:55 10° NNW 23:53:17 46° NNE 23:53:17 46° NNE
